sat.trackr.live / text

‹ back to catalog

GEESAT-2 03

NORAD 58907 · 2024-023C

PAYLOAD ACTIVE UNKNOWN

§ Identity

Operator
Country
PRC
Launch date
2024-02-02
Launch site
XICLF
Launch vehicle
Mass (kg)
RCS (m²)

External: N2YO · Heavens-Above · Gunter

§ Orbital elements

Epoch: 2026-05-25T03:37:37.525728Z

Period
96.20 min
Inclination
50.0010°
Eccentricity
0.0006310
Mean motion
14.96957039 rev/d
Perigee alt
571.9 km
Apogee alt
580.7 km
Semi-major
6,954.4 km
B*
1.9795e-4
RAAN
73.2680°
Arg perigee
306.9802°
Mean anomaly
53.0564°
Rev number
12,587

§ Raw data

GEESAT-2 031 58907U 24023C   26145.15112877  .00002047  00000+0  19795-3 0  99962 58907  50.0010  73.2680 0006310 306.9802  53.0564 14.96957039125870

JSON: /api/v1/satellites/58907 · /tle

For live sub-satellite position, see the globe view (requires WebGL).

§ Visibility from observer

Set your observer location to see the next 7 days of passes ≥ 10°. The values pass through the URL so the page stays shareable.

No JS? Fill the form by hand. The geolocation button needs JavaScript.